CZ-6A DEB, 64643

Orbit data source: Space-Track

CZ-6A DEB, 64643 is space debris in LEO originally from a launch on Tue, 06 Aug 2024 UTC launched from the Taiyaun Space Center, China (TSC). Debris objects in space refer to the collection of defunct objects orbiting the Earth. Examples of debris include non-operational satellites, rocket bodies, and fragments generated from explosions, collisions, or faulty payload assembly.

Loading next visibility...
Identifier
64643, 2024-140AEH
Orbit
LEO
Country
Flag of CNCN / PRC
Related business
Manufacturer
SAST
Mission
Spacecraft
Bus & Motor
Unknown
Mass
Unknown
Launch date (UTC)
2024-08-06 (1 year ago)
Launch vehicle
Unknown
Launch site
Taiyaun Space Center, China (TSC)
Object type
Payload
Rocket body
Debris
Shape & HBR
Unknown shape, 0.1 m
Radar Cross Section
Small (<0.1 m²)

Expand to show TLE details & history
Last TLE update: 19 hours ago

TLE from 19 hours ago
0 CZ-6A DEB
1 64643U 24140AEH 25350.85601937  .00002437  00000-0  98715-3 0  9997
2 64643  89.1490 303.5875 0075000 105.8270 255.1209 14.25948784 64008
Epoch: 2025-12-16T20:32Z
TLE epoch observation values (Epoch: 2025-12-16T20:32:40.073Z)
Latitude
0.00004°
Longitude
-90.3137°
Altitude
822.581 km
Speed
7.434 km/s
True Right ascension
20h 14m 21s
True Declination
0° 00' 00"
Sunlit
Object was in daylight at epoch
Visualization orbit readout
Latitude
Unknown
Longitude
Unknown
Altitude
Unknown
Speed
Unknown
Apparent Right ascension
Unknown
Apparent Declination
Unknown
Sunlit
N/A
Visualization observer readout
Local Sidereal Time
14:45:20
Azimuth
Unknown
Elevation
Unknown
Doppler factor
Unknown
Orbital elements
Apogee altitude
856.099 km
Perigee altitude
748.393 km
Semi-major axis
7,180.383 km
Eccentricity
0.0075
Inclination
89.149°
RAAN
303.5875°
Arg. of periapsis
105.827°
True anomaly
254.2923°
Mean anomaly
255.1209°
Eccentric anomaly
254.7064°
Mean motion
3.56715 °/min
Orbital period
100.92 mins
BSTAR
0.00098715
Loading maneuver chart data...
Computing Atmospheric mass density...
Loading historical data...
Loading historical data...
Loading historical data...
Loading historical data...
Loading historical data...
Loading historical data...
Loading historical data...

Documentation

Showing up to 5 results
|